一网星座-0385星 (ONEWEB-0385 )

导读

ONEWEB-0385是英国OneWeb星座项目下的低轨道宽带通信卫星,于2021年10月14日发射入轨。OneWeb星座旨在构建全球卫星互联网络,为航空、海运、偏远地区提供高速低延迟网络接入,助力缩小数字鸿沟,提供全球覆盖的3G、5G及Wi-Fi接入服务。ONEWEB-0385的成功入轨,进一步推动OneWeb全球宽带星座的组网进程,助力实现全球无缝网络覆盖的愿景。

基本信息
目录编号:
49311
目录名称:
ONEWEB-0385
国际标识:
2021-090AJ
轨道中心:
EARTH
卫星名称:
一网星座-0385星
卫星全名:
一网星座-0385星 (ONEWEB-0385 )
卫星状态:
在轨 (已飞行1704 天)
发射日期:
2021-10-14 UTC
国别 :
英国 (GB)
星等 :
--
轨道信息
数据来源 国际轨道数据 AOE轨道数据
星历时间 2026-06-14T03:19:52+0800
16小时前
查看轨道信息
2026-06-11T10:00:00+0800
3天前
查看轨道信息
半长轴 7559.909km 7559.914km
偏心率 0.0002017 0.0002214
轨道倾角 87.919° 87.918°
近地点辐角 94.482° 102.427°
升交点赤经 275.114° 275.655°
平近点角 265.655° 282.033°
近地点 1180.247km 1180.103km
远地点 1183.297km 1183.451km
周期 109.027分钟 109.027分钟
每日圈数 13.207723 13.207711
详细信息
平衡模式:
三轴稳定
覆盖范围:
全球
运营商:
一网卫星公司
运营商所在国:
英国
制造商(研发单位):
一网卫星公司
制造商所在国:
英国
使用方式:
暂无
卫星简介
OneWeb卫星网络由648颗重约125公斤的微型卫星组成,运行在1200公里的轨道上。 每颗卫星都能够提供至少每秒8千兆位的吞吐量,以使用其高吞吐量的Ku频段有效载荷为家庭和移动平台提供互联网接入。该卫星仍在工作。
2D轨道图
3D轨道图
轨道高度分析图
轨道倾角分析图
轨道综合分析图
查看轨道综合分析图